| time (UTC) | temp C | wind direction | speed KPH | gust KPH | rain 1hr cm | rain 24hr cm | rain mn cm | humidity % | barometer mb |
| 20260905150709 | 17 | 22 | 0.0 | 0.0 | 0.00 | 0.00 | 0.00 | 49 | 935.8 |
| 20260905150208 | 18 | 66 | 0.0 | 0.0 | 0.00 | 0.00 | 0.00 | 49 | 935.6 |
| 20260905145706 | 18 | 66 | 0.0 | 0.0 | 0.00 | 0.00 | 0.00 | 51 | 935.5 |
| 20260905145201 | 18 | 69 | 0.0 | 0.0 | 0.00 | 0.00 | 0.00 | 51 | 935.2 |
| 20260905144700 | 17 | 65 | 0.0 | 0.0 | 0.00 | 0.00 | 0.00 | 51 | 935.3 |
| 20260905144200 | 16 | 67 | 0.0 | 0.0 | 0.00 | 0.00 | 0.00 | 53 | 935.2 |
| 20260905143700 | 16 | 73 | 0.0 | 0.0 | 0.00 | 0.00 | 0.00 | 54 | 935.3 |
| 20260905143159 | 16 | 131 | 0.0 | 0.0 | 0.00 | 0.00 | 0.00 | 54 | 935.2 |
| 20260905142658 | 15 | 122 | 0.0 | 0.0 | 0.00 | 0.00 | 0.00 | 55 | 935.0 |
| 20260905142153 | 15 | 95 | 0.0 | 0.0 | 0.00 | 0.00 | 0.00 | 56 | 935.0 |
| 20260905141648 | 15 | 103 | 0.0 | 0.0 | 0.00 | 0.00 | 0.00 | 56 | 935.0 |
| 20260905141144 | 14 | 77 | 0.0 | 0.0 | 0.00 | 0.00 | 0.00 | 58 | 935.1 |
| 20260905140639 | 14 | 101 | 0.0 | 0.0 | 0.00 | 0.00 | 0.00 | 58 | 934.8 |
| 20260905140138 | 13 | 108 | 0.0 | 0.0 | 0.00 | 0.00 | 0.00 | 58 | 934.9 |
| 20260905135634 | 13 | 102 | 0.0 | 0.0 | 0.00 | 0.00 | 0.00 | 58 | 935.0 |
| 20260905135129 | 13 | 103 | 0.0 | 0.0 | 0.00 | 0.00 | 0.00 | 60 | 934.8 |
| 20260905134624 | 13 | 69 | 0.0 | 3.2 | 0.00 | 0.00 | 0.00 | 59 | 934.8 |
| 20260905134122 | 12 | 55 | 0.0 | 0.0 | 0.00 | 0.00 | 0.00 | 60 | 934.7 |
| 20260905133619 | 12 | 63 | 0.0 | 0.0 | 0.00 | 0.00 | 0.00 | 61 | 934.5 |
| 20260905133118 | 11 | 103 | 0.0 | 0.0 | 0.00 | 0.00 | 0.00 | 65 | 934.4 |
| 20260905132618 | 10 | 75 | 0.0 | 0.0 | 0.00 | 0.00 | 0.00 | 68 | 934.4 |
| 20260905132113 | 10 | 87 | 0.0 | 0.0 | 0.00 | 0.00 | 0.00 | 69 | 934.3 |
| 20260905131608 | 10 | 71 | 0.0 | 0.0 | 0.00 | 0.00 | 0.00 | 68 | 934.3 |
| 20260905131103 | 10 | 81 | 0.0 | 0.0 | 0.00 | 0.00 | 0.00 | 67 | 934.2 |
| 20260905130603 | 10 | 78 | 0.0 | 0.0 | 0.00 | 0.00 | 0.00 | 69 | 934.1 |
| 20260905130057 | 10 | 90 | 0.0 | 0.0 | 0.00 | 0.00 | 0.00 | 69 | 934.1 |
| 20260905125557 | 10 | 87 | 0.0 | 0.0 | 0.00 | 0.00 | 0.00 | 69 | 934.2 |
| 20260905125053 | 9 | 59 | 0.0 | 0.0 | 0.00 | 0.00 | 0.00 | 74 | 934.1 |
| 20260905124549 | 9 | 74 | 0.0 | 0.0 | 0.00 | 0.00 | 0.00 | 72 | 934.2 |
| 20260905124045 | 9 | 54 | 0.0 | 0.0 | 0.00 | 0.00 | 0.00 | 73 | 934.2 |
| 20260905123540 | 9 | 46 | 0.0 | 0.0 | 0.00 | 0.00 | 0.00 | 75 | 934.0 |
| 20260905123037 | 9 | 45 | 0.0 | 0.0 | 0.00 | 0.00 | 0.00 | 75 | 933.7 |
| 20260905122536 | 9 | 43 | 0.0 | 0.0 | 0.00 | 0.00 | 0.00 | 74 | 934.0 |
| 20260905122032 | 9 | 43 | 0.0 | 0.0 | 0.00 | 0.00 | 0.00 | 74 | 933.9 |
| 20260905121532 | 9 | 66 | 0.0 | 0.0 | 0.00 | 0.00 | 0.00 | 74 | 934.0 |
| 20260905121027 | 9 | 87 | 0.0 | 0.0 | 0.00 | 0.00 | 0.00 | 73 | 934.0 |
| 20260905120526 | 10 | 69 | 0.0 | 0.0 | 0.00 | 0.00 | 0.00 | 72 | 934.0 |
| 20260905120022 | 9 | 82 | 0.0 | 0.0 | 0.00 | 0.00 | 0.00 | 72 | 934.1 |
| 20260905115520 | 8 | 71 | 0.0 | 0.0 | 0.00 | 0.00 | 0.00 | 73 | 934.1 |
| 20260905115015 | 9 | 101 | 0.0 | 0.0 | 0.00 | 0.00 | 0.00 | 73 | 934.3 |
| 20260905114514 | 8 | 64 | 0.0 | 0.0 | 0.00 | 0.00 | 0.00 | 76 | 934.0 |
| 20260905114014 | 9 | 43 | 0.0 | 0.0 | 0.00 | 0.00 | 0.00 | 76 | 934.1 |
| 20260905113509 | 10 | 77 | 0.0 | 0.0 | 0.00 | 0.00 | 0.00 | 75 | 934.0 |
| 20260905113004 | 10 | 64 | 0.0 | 0.0 | 0.00 | 0.00 | 0.00 | 75 | 934.1 |
| 20260905112459 | 10 | 88 | 0.0 | 0.0 | 0.00 | 0.00 | 0.00 | 76 | 933.9 |
| 20260905111954 | 10 | 71 | 0.0 | 0.0 | 0.00 | 0.00 | 0.00 | 76 | 934.1 |
| 20260905111449 | 10 | 54 | 0.0 | 0.0 | 0.00 | 0.00 | 0.00 | 76 | 934.1 |
| 20260905110949 | 10 | 64 | 0.0 | 0.0 | 0.00 | 0.00 | 0.00 | 75 | 933.7 |
| 20260905110448 | 10 | 53 | 0.0 | 0.0 | 0.00 | 0.00 | 0.00 | 75 | 933.9 |
| 20260905105948 | 10 | 74 | 0.0 | 0.0 | 0.00 | 0.00 | 0.00 | 74 | 933.9 |
| 20260905105443 | 10 | 96 | 0.0 | 0.0 | 0.00 | 0.00 | 0.00 | 74 | 933.7 |
| 20260905104942 | 10 | 100 | 0.0 | 0.0 | 0.00 | 0.00 | 0.00 | 75 | 933.7 |
| 20260905104439 | 10 | 79 | 0.0 | 0.0 | 0.00 | 0.00 | 0.00 | 76 | 933.7 |
| 20260905103939 | 10 | 83 | 0.0 | 0.0 | 0.00 | 0.00 | 0.00 | 75 | 933.9 |
| 20260905103434 | 10 | 71 | 0.0 | 0.0 | 0.00 | 0.00 | 0.00 | 74 | 933.6 |
| 20260905102930 | 10 | 81 | 0.0 | 0.0 | 0.00 | 0.00 | 0.00 | 74 | 933.6 |
| 20260905102426 | 10 | 80 | 0.0 | 0.0 | 0.00 | 0.00 | 0.00 | 74 | 933.7 |
| 20260905101921 | 10 | 71 | 0.0 | 0.0 | 0.00 | 0.00 | 0.00 | 74 | 933.5 |
| 20260905101420 | 10 | 69 | 0.0 | 0.0 | 0.00 | 0.00 | 0.00 | 73 | 933.5 |
| 20260905100914 | 10 | 45 | 0.0 | 0.0 | 0.00 | 0.00 | 0.00 | 74 | 933.4 |
| 20260905100410 | 10 | 44 | 0.0 | 0.0 | 0.00 | 0.00 | 0.00 | 71 | 933.6 |
| 20260905095910 | 10 | 75 | 0.0 | 0.0 | 0.00 | 0.00 | 0.00 | 72 | 933.5 |
| 20260905095404 | 10 | 94 | 0.0 | 0.0 | 0.00 | 0.00 | 0.00 | 72 | 933.5 |
| 20260905094904 | 10 | 75 | 0.0 | 0.0 | 0.00 | 0.00 | 0.00 | 72 | 933.4 |
| 20260905094400 | 10 | 69 | 0.0 | 0.0 | 0.00 | 0.00 | 0.00 | 72 | 933.3 |
| 20260905093859 | 10 | 73 | 0.0 | 0.0 | 0.00 | 0.00 | 0.00 | 72 | 933.4 |
| 20260905093354 | 10 | 73 | 0.0 | 0.0 | 0.00 | 0.00 | 0.00 | 72 | 933.4 |
| 20260905092850 | 10 | 58 | 0.0 | 0.0 | 0.00 | 0.00 | 0.00 | 72 | 933.3 |
| 20260905092350 | 10 | 68 | 0.0 | 0.0 | 0.00 | 0.00 | 0.00 | 71 | 933.2 |
| 20260905091845 | 11 | 76 | 0.0 | 0.0 | 0.00 | 0.00 | 0.00 | 70 | 933.3 |
| 20260905091345 | 11 | 77 | 0.0 | 0.0 | 0.00 | 0.00 | 0.00 | 70 | 932.9 |
| 20260905090844 | 10 | 79 | 0.0 | 0.0 | 0.00 | 0.00 | 0.00 | 71 | 933.1 |
| 20260905090340 | 10 | 81 | 0.0 | 0.0 | 0.00 | 0.00 | 0.00 | 71 | 933.1 |
| 20260905085839 | 11 | 70 | 0.0 | 0.0 | 0.00 | 0.00 | 0.00 | 71 | 932.9 |
| 20260905085339 | 10 | 68 | 0.0 | 0.0 | 0.00 | 0.00 | 0.00 | 71 | 933.2 |
| 20260905084835 | 10 | 59 | 0.0 | 0.0 | 0.00 | 0.00 | 0.00 | 72 | 933.2 |
| 20260905084334 | 11 | 47 | 0.0 | 0.0 | 0.00 | 0.00 | 0.00 | 70 | 932.9 |
| 20260905083829 | 11 | 66 | 0.0 | 0.0 | 0.00 | 0.00 | 0.00 | 68 | 932.9 |
| 20260905083325 | 11 | 65 | 0.0 | 0.0 | 0.00 | 0.00 | 0.00 | 68 | 933.1 |
| 20260905082820 | 11 | 65 | 0.0 | 0.0 | 0.00 | 0.00 | 0.00 | 68 | 932.9 |
| 20260905082316 | 11 | 75 | 0.0 | 0.0 | 0.00 | 0.00 | 0.00 | 69 | 932.9 |
| 20260905081811 | 11 | 83 | 0.0 | 0.0 | 0.00 | 0.00 | 0.00 | 69 | 932.9 |
| 20260905081306 | 11 | 75 | 0.0 | 0.0 | 0.00 | 0.00 | 0.00 | 69 | 932.9 |
| 20260905080805 | 11 | 90 | 0.0 | 0.0 | 0.00 | 0.00 | 0.00 | 69 | 932.8 |
| 20260905080306 | 11 | 53 | 0.0 | 0.0 | 0.00 | 0.00 | 0.00 | 68 | 932.8 |
| 20260905075804 | 11 | 50 | 0.0 | 0.0 | 0.00 | 0.00 | 0.00 | 67 | 933.1 |
| 20260905075306 | 12 | 71 | 0.0 | 0.0 | 0.00 | 0.00 | 0.00 | 66 | 932.6 |
| 20260905074803 | 12 | 74 | 0.0 | 0.0 | 0.00 | 0.00 | 0.00 | 66 | 932.7 |
| 20260905074259 | 12 | 90 | 0.0 | 0.0 | 0.00 | 0.00 | 0.00 | 66 | 932.8 |
| 20260905073754 | 12 | 95 | 0.0 | 0.0 | 0.00 | 0.00 | 0.00 | 65 | 932.7 |
| 20260905073250 | 12 | 95 | 0.0 | 0.0 | 0.00 | 0.00 | 0.00 | 65 | 932.7 |
| 20260905072749 | 12 | 77 | 0.0 | 0.0 | 0.00 | 0.00 | 0.00 | 65 | 932.7 |
| 20260905072245 | 12 | 78 | 0.0 | 0.0 | 0.00 | 0.00 | 0.00 | 64 | 932.4 |
| 20260905071741 | 12 | 78 | 0.0 | 0.0 | 0.00 | 0.00 | 0.00 | 64 | 932.8 |
| 20260905071237 | 12 | 70 | 0.0 | 0.0 | 0.00 | 0.00 | 0.00 | 65 | 932.6 |
| 20260905070732 | 12 | 45 | 0.0 | 0.0 | 0.00 | 0.00 | 0.00 | 66 | 932.5 |
| 20260905070228 | 12 | 45 | 0.0 | 0.0 | 0.00 | 0.00 | 0.00 | 65 | 932.4 |
| 20260905065726 | 12 | 58 | 0.0 | 0.0 | 0.00 | 0.00 | 0.00 | 65 | 932.1 |
| 20260905065221 | 12 | 64 | 0.0 | 0.0 | 0.00 | 0.00 | 0.00 | 63 | 932.1 |
| 20260905064716 | 12 | 87 | 0.0 | 0.0 | 0.00 | 0.00 | 0.00 | 64 | 932.4 |
| 20260905064212 | 13 | 78 | 0.0 | 0.0 | 0.00 | 0.00 | 0.00 | 60 | 932.1 |
| 20260905063710 | 12 | 80 | 0.0 | 0.0 | 0.00 | 0.00 | 0.00 | 61 | 932.1 |
| 20260905063207 | 13 | 71 | 0.0 | 0.0 | 0.00 | 0.00 | 0.00 | 61 | 932.3 |
| 20260905062702 | 13 | 71 | 0.0 | 0.0 | 0.00 | 0.00 | 0.00 | 60 | 932.0 |
| 20260905062201 | 13 | 102 | 0.0 | 0.0 | 0.00 | 0.00 | 0.00 | 60 | 932.4 |
| 20260905061656 | 13 | 78 | 0.0 | 0.0 | 0.00 | 0.00 | 0.00 | 59 | 932.1 |
| 20260905061155 | 13 | 64 | 0.0 | 0.0 | 0.00 | 0.00 | 0.00 | 58 | 932.0 |
| 20260905060651 | 13 | 68 | 0.0 | 0.0 | 0.00 | 0.00 | 0.00 | 57 | 932.0 |
| 20260905060148 | 14 | 82 | 0.0 | 0.0 | 0.00 | 0.00 | 0.00 | 56 | 931.8 |
| 20260905055646 | 14 | 69 | 0.0 | 0.0 | 0.00 | 0.00 | 0.00 | 55 | 931.8 |
| 20260905055141 | 15 | 115 | 0.0 | 0.0 | 0.00 | 0.00 | 0.00 | 54 | 931.8 |
| 20260905054637 | 15 | 111 | 0.0 | 0.0 | 0.00 | 0.00 | 0.00 | 51 | 931.9 |
| 20260905054132 | 15 | 74 | 0.0 | 0.0 | 0.00 | 0.00 | 0.00 | 52 | 931.8 |
| 20260905053632 | 15 | 111 | 0.0 | 0.0 | 0.00 | 0.00 | 0.00 | 51 | 931.8 |
| 20260905053127 | 15 | 141 | 0.0 | 1.6 | 0.00 | 0.00 | 0.00 | 50 | 931.7 |
| 20260905052626 | 15 | 129 | 0.0 | 0.0 | 0.00 | 0.00 | 0.00 | 51 | 931.5 |
| 20260905052121 | 15 | 86 | 0.0 | 3.2 | 0.00 | 0.00 | 0.00 | 51 | 931.7 |
| 20260905051617 | 15 | 27 | 0.0 | 0.0 | 0.00 | 0.00 | 0.00 | 50 | 931.5 |
| 20260905051114 | 15 | 354 | 0.0 | 0.0 | 0.00 | 0.00 | 0.00 | 51 | 931.6 |
| 20260905050609 | 15 | 40 | 0.0 | 0.0 | 0.00 | 0.00 | 0.00 | 52 | 931.3 |
| 20260905050106 | 15 | 67 | 0.0 | 0.0 | 0.00 | 0.00 | 0.00 | 51 | 931.3 |
| 20260905045606 | 15 | 94 | 0.0 | 9.7 | 0.00 | 0.00 | 0.00 | 50 | 931.3 |
| 20260905045102 | 15 | 148 | 0.0 | 0.0 | 0.00 | 0.00 | 0.00 | 49 | 931.6 |
| 20260905044601 | 16 | 56 | 0.0 | 0.0 | 0.00 | 0.00 | 0.00 | 48 | 931.7 |
| 20260905044056 | 16 | 89 | 0.0 | 0.0 | 0.00 | 0.00 | 0.00 | 48 | 931.9 |
| 20260905043555 | 16 | 119 | 0.0 | 0.0 | 0.00 | 0.00 | 0.00 | 47 | 931.8 |
| 20260905043051 | 16 | 128 | 0.0 | 0.0 | 0.00 | 0.00 | 0.00 | 47 | 932.0 |
| 20260905042549 | 15 | 89 | 0.0 | 0.0 | 0.00 | 0.00 | 0.00 | 48 | 932.0 |
| 20260905042044 | 15 | 47 | 0.0 | 0.0 | 0.00 | 0.00 | 0.00 | 49 | 932.0 |
| 20260905041540 | 16 | 51 | 0.0 | 0.0 | 0.00 | 0.00 | 0.00 | 48 | 931.9 |
| 20260905041035 | 16 | 53 | 0.0 | 0.0 | 0.00 | 0.00 | 0.00 | 49 | 931.6 |
| 20260905040535 | 16 | 55 | 0.0 | 0.0 | 0.00 | 0.00 | 0.00 | 48 | 931.8 |
| 20260905040033 | 16 | 80 | 0.0 | 0.0 | 0.00 | 0.00 | 0.00 | 46 | 931.7 |
| 20260905035529 | 16 | 84 | 0.0 | 0.0 | 0.00 | 0.00 | 0.00 | 45 | 931.7 |
| 20260905035026 | 17 | 80 | 0.0 | 0.0 | 0.00 | 0.00 | 0.00 | 45 | 931.7 |
| 20260905034522 | 17 | 87 | 0.0 | 0.0 | 0.00 | 0.00 | 0.00 | 43 | 931.7 |
| 20260905034021 | 17 | 62 | 0.0 | 0.0 | 0.00 | 0.00 | 0.00 | 44 | 931.6 |
| 20260905033521 | 17 | 67 | 0.0 | 0.0 | 0.00 | 0.00 | 0.00 | 44 | 931.6 |
| 20260905033017 | 17 | 87 | 0.0 | 1.6 | 0.00 | 0.00 | 0.00 | 45 | 931.8 |
| 20260905032511 | 17 | 79 | 0.0 | 0.0 | 0.00 | 0.00 | 0.00 | 44 | 931.7 |
| 20260905032007 | 18 | 71 | 0.0 | 0.0 | 0.00 | 0.00 | 0.00 | 41 | 931.3 |
| 20260905031502 | 18 | 71 | 0.0 | 0.0 | 0.00 | 0.00 | 0.00 | 40 | 931.6 |
| 20260905030957 | 18 | 107 | 0.0 | 0.0 | 0.00 | 0.00 | 0.00 | 41 | 931.1 |
| 20260905030452 | 18 | 90 | 0.0 | 0.0 | 0.00 | 0.00 | 0.00 | 41 | 931.2 |
| 20260905025951 | 18 | 165 | 0.0 | 0.0 | 0.00 | 0.00 | 0.00 | 40 | 931.2 |
| 20260905025447 | 18 | 73 | 0.0 | 0.0 | 0.00 | 0.00 | 0.00 | 39 | 931.1 |
| 20260905024943 | 18 | 61 | 0.0 | 0.0 | 0.00 | 0.00 | 0.00 | 39 | 931.0 |
| 20260905024443 | 19 | 65 | 0.0 | 0.0 | 0.00 | 0.00 | 0.00 | 38 | 931.0 |
| 20260905023939 | 20 | 115 | 0.0 | 0.0 | 0.00 | 0.00 | 0.00 | 37 | 931.1 |
| 20260905023434 | 19 | 95 | 0.0 | 0.0 | 0.00 | 0.00 | 0.00 | 39 | 931.0 |
| 20260905022933 | 19 | 65 | 0.0 | 0.0 | 0.00 | 0.00 | 0.00 | 40 | 930.9 |
| 20260905022428 | 20 | 61 | 0.0 | 0.0 | 0.00 | 0.00 | 0.00 | 41 | 930.9 |
| 20260905021923 | 20 | 60 | 0.0 | 0.0 | 0.00 | 0.00 | 0.00 | 41 | 930.8 |
| 20260905021424 | 21 | 60 | 0.0 | 0.0 | 0.00 | 0.00 | 0.00 | 37 | 930.8 |
| 20260905020919 | 21 | 61 | 0.0 | 0.0 | 0.00 | 0.00 | 0.00 | 33 | 930.9 |
| 20260905020418 | 22 | 61 | 0.0 | 0.0 | 0.00 | 0.00 | 0.00 | 31 | 931.0 |
| 20260905015918 | 22 | 104 | 0.0 | 0.0 | 0.00 | 0.00 | 0.00 | 29 | 930.9 |
| 20260905015416 | 23 | 102 | 0.0 | 0.0 | 0.00 | 0.00 | 0.00 | 29 | 930.8 |
| 20260905014916 | 23 | 163 | 0.0 | 0.0 | 0.00 | 0.00 | 0.00 | 28 | 930.9 |
| 20260905014412 | 23 | 174 | 0.0 | 0.0 | 0.00 | 0.00 | 0.00 | 28 | 931.0 |
| 20260905013912 | 24 | 169 | 0.0 | 3.2 | 0.00 | 0.00 | 0.00 | 27 | 930.8 |
| 20260905013408 | 25 | 253 | 0.0 | 0.0 | 0.00 | 0.00 | 0.00 | 26 | 930.7 |
| 20260905012903 | 25 | 175 | 0.0 | 0.0 | 0.00 | 0.00 | 0.00 | 26 | 930.4 |
| 20260905012358 | 25 | 236 | 0.0 | 14.5 | 0.00 | 0.00 | 0.00 | 25 | 930.9 |
| 20260905011855 | 25 | 170 | 0.0 | 8.0 | 0.00 | 0.00 | 0.00 | 25 | 930.8 |
| 20260905011350 | 25 | 200 | 0.0 | 3.2 | 0.00 | 0.00 | 0.00 | 25 | 930.8 |
| 20260905010846 | 25 | 323 | 0.0 | 4.8 | 0.00 | 0.00 | 0.00 | 26 | 930.8 |
| 20260905010341 | 25 | 278 | 0.0 | 12.9 | 0.00 | 0.00 | 0.00 | 25 | 930.9 |
| 20260905005837 | 25 | 345 | 0.0 | 0.0 | 0.00 | 0.00 | 0.00 | 26 | 930.9 |
| 20260905005333 | 26 | 235 | 14.5 | 20.9 | 0.00 | 0.00 | 0.00 | 24 | 931.1 |
| 20260905004828 | 26 | 312 | 0.0 | 11.3 | 0.00 | 0.00 | 0.00 | 25 | 931.2 |
| 20260905004322 | 26 | 252 | 0.0 | 11.3 | 0.00 | 0.00 | 0.00 | 24 | 931.3 |
| 20260905003818 | 26 | 244 | 9.7 | 20.9 | 0.00 | 0.00 | 0.00 | 24 | 931.3 |
| 20260905003314 | 26 | 248 | 1.6 | 11.3 | 0.00 | 0.00 | 0.00 | 24 | 931.1 |
| 20260905002809 | 26 | 209 | 1.6 | 3.2 | 0.00 | 0.00 | 0.00 | 24 | 931.1 |
| 20260905002309 | 26 | 188 | 4.8 | 17.7 | 0.00 | 0.00 | 0.00 | 25 | 931.2 |
| 20260905001804 | 26 | 218 | 4.8 | 11.3 | 0.00 | 0.00 | 0.00 | 24 | 931.3 |
| 20260905001303 | 26 | 236 | 3.2 | 24.1 | 0.00 | 0.00 | 0.00 | 24 | 931.7 |
| 20260905000759 | 26 | 213 | 6.4 | 20.9 | 0.00 | 0.00 | 0.00 | 24 | 931.5 |
| 20260905000255 | 26 | 215 | 12.9 | 24.1 | 0.00 | 0.00 | 0.00 | 24 | 931.2 |
| 20260904235749 | 27 | 188 | 1.6 | 25.7 | 0.00 | 0.00 | 0.00 | 24 | 931.3 |
| 20260904235244 | 27 | 253 | 4.8 | 24.1 | 0.00 | 0.00 | 0.00 | 24 | 931.3 |
| 20260904234739 | 27 | 287 | 9.7 | 20.9 | 0.00 | 0.00 | 0.00 | 24 | 931.2 |
| 20260904234234 | 27 | 212 | 11.3 | 17.7 | 0.00 | 0.00 | 0.00 | 24 | 930.8 |
| 20260904233730 | 27 | 242 | 12.9 | 22.5 | 0.00 | 0.00 | 0.00 | 24 | 930.9 |
| 20260904233226 | 26 | 216 | 8.0 | 16.1 | 0.00 | 0.00 | 0.00 | 24 | 930.9 |
| 20260904232723 | 26 | 199 | 4.8 | 12.9 | 0.00 | 0.00 | 0.00 | 24 | 931.0 |
| 20260904232219 | 27 | 250 | 24.1 | 29.0 | 0.00 | 0.00 | 0.00 | 23 | 930.8 |
| 20260904231714 | 27 | 233 | 8.0 | 20.9 | 0.00 | 0.00 | 0.00 | 24 | 931.0 |
| 20260904231209 | 27 | 234 | 1.6 | 22.5 | 0.00 | 0.00 | 0.00 | 24 | 930.8 |
| 20260904230708 | 27 | 343 | 1.6 | 12.9 | 0.00 | 0.00 | 0.00 | 24 | 930.8 |
| 20260904230203 | 27 | 246 | 9.7 | 17.7 | 0.00 | 0.00 | 0.00 | 24 | 930.8 |
| 20260904225701 | 27 | 237 | 14.5 | 22.5 | 0.00 | 0.00 | 0.00 | 24 | 930.9 |
| 20260904225156 | 27 | 211 | 8.0 | 20.9 | 0.00 | 0.00 | 0.00 | 25 | 930.9 |
| 20260904224651 | 27 | 251 | 9.7 | 17.7 | 0.00 | 0.00 | 0.00 | 24 | 931.1 |
| 20260904224150 | 27 | 211 | 14.5 | 17.7 | 0.00 | 0.00 | 0.00 | 23 | 931.2 |
| 20260904223650 | 27 | 253 | 6.4 | 32.2 | 0.00 | 0.00 | 0.00 | 25 | 931.0 |
| 20260904223145 | 27 | 151 | 0.0 | 9.7 | 0.00 | 0.00 | 0.00 | 25 | 930.8 |
| 20260904222641 | 27 | 231 | 1.6 | 25.7 | 0.00 | 0.00 | 0.00 | 25 | 930.9 |
| 20260904222137 | 26 | 267 | 14.5 | 29.0 | 0.00 | 0.00 | 0.00 | 25 | 931.0 |
| 20260904221637 | 27 | 225 | 14.5 | 25.7 | 0.00 | 0.00 | 0.00 | 24 | 931.0 |
| 20260904221137 | 27 | 239 | 6.4 | 27.4 | 0.00 | 0.00 | 0.00 | 24 | 931.0 |
| 20260904220632 | 27 | 16 | 3.2 | 17.7 | 0.00 | 0.00 | 0.00 | 24 | 931.3 |
| 20260904220127 | 26 | 279 | 8.0 | 11.3 | 0.00 | 0.00 | 0.00 | 25 | 931.2 |
| 20260904215621 | 26 | 249 | 20.9 | 32.2 | 0.00 | 0.00 | 0.00 | 25 | 931.3 |
| 20260904215117 | 27 | 237 | 14.5 | 25.7 | 0.00 | 0.00 | 0.00 | 24 | 931.1 |
| 20260904214617 | 26 | 291 | 12.9 | 22.5 | 0.00 | 0.00 | 0.00 | 24 | 931.6 |
| 20260904214113 | 26 | 249 | 11.3 | 22.5 | 0.00 | 0.00 | 0.00 | 24 | 931.5 |
| 20260904213611 | 26 | 251 | 9.7 | 16.1 | 0.00 | 0.00 | 0.00 | 24 | 931.2 |
| 20260904213108 | 27 | 248 | 11.3 | 20.9 | 0.00 | 0.00 | 0.00 | 24 | 931.3 |
| 20260904212607 | 27 | 272 | 8.0 | 25.7 | 0.00 | 0.00 | 0.00 | 24 | 931.3 |
| 20260904212103 | 26 | 187 | 1.6 | 22.5 | 0.00 | 0.00 | 0.00 | 25 | 931.5 |
| 20260904211602 | 26 | 255 | 20.9 | 27.4 | 0.00 | 0.00 | 0.00 | 24 | 931.5 |
| 20260904211058 | 26 | 220 | 8.0 | 37.0 | 0.00 | 0.00 | 0.00 | 25 | 931.1 |
| 20260904210557 | 26 | 245 | 12.9 | 29.0 | 0.00 | 0.00 | 0.00 | 24 | 931.3 |
| 20260904210053 | 26 | 211 | 11.3 | 25.7 | 0.00 | 0.00 | 0.00 | 25 | 931.1 |
| 20260904205548 | 26 | 222 | 16.1 | 32.2 | 0.00 | 0.00 | 0.00 | 24 | 931.2 |
| 20260904205045 | 26 | 185 | 1.6 | 17.7 | 0.00 | 0.00 | 0.00 | 25 | 931.2 |
| 20260904204541 | 26 | 189 | 8.0 | 16.1 | 0.00 | 0.00 | 0.00 | 25 | 931.5 |
| 20260904204036 | 26 | 163 | 4.8 | 35.4 | 0.00 | 0.00 | 0.00 | 25 | 931.2 |
| 20260904203532 | 26 | 222 | 14.5 | 29.0 | 0.00 | 0.00 | 0.00 | 24 | 931.6 |
| 20260904203028 | 26 | 202 | 12.9 | 25.7 | 0.00 | 0.00 | 0.00 | 24 | 931.5 |
| 20260904202524 | 26 | 245 | 8.0 | 27.4 | 0.00 | 0.00 | 0.00 | 24 | 931.6 |
| 20260904202020 | 26 | 174 | 14.5 | 17.7 | 0.00 | 0.00 | 0.00 | 24 | 931.5 |
| 20260904201515 | 26 | 253 | 11.3 | 24.1 | 0.00 | 0.00 | 0.00 | 23 | 931.5 |
| 20260904201010 | 26 | 201 | 14.5 | 29.0 | 0.00 | 0.00 | 0.00 | 25 | 931.5 |
| 20260904200509 | 26 | 213 | 16.1 | 25.7 | 0.00 | 0.00 | 0.00 | 24 | 931.3 |
| 20260904200004 | 25 | 192 | 11.3 | 32.2 | 0.00 | 0.00 | 0.00 | 25 | 931.7 |
| 20260904195502 | 25 | 201 | 17.7 | 24.1 | 0.00 | 0.00 | 0.00 | 24 | 931.7 |
| 20260904195001 | 25 | 222 | 19.3 | 32.2 | 0.00 | 0.00 | 0.00 | 24 | 931.7 |
| 20260904194457 | 25 | 208 | 9.7 | 16.1 | 0.00 | 0.00 | 0.00 | 25 | 931.7 |
| 20260904193951 | 25 | 179 | 9.7 | 25.7 | 0.00 | 0.00 | 0.00 | 25 | 931.7 |
| 20260904193447 | 25 | 183 | 17.7 | 22.5 | 0.00 | 0.00 | 0.00 | 25 | 931.9 |
| 20260904192942 | 25 | 227 | 12.9 | 22.5 | 0.00 | 0.00 | 0.00 | 24 | 931.7 |
| 20260904192437 | 25 | 240 | 1.6 | 20.9 | 0.00 | 0.00 | 0.00 | 25 | 931.7 |
| 20260904191933 | 25 | 253 | 12.9 | 20.9 | 0.00 | 0.00 | 0.00 | 25 | 931.8 |
| 20260904191430 | 25 | 187 | 17.7 | 27.4 | 0.00 | 0.00 | 0.00 | 25 | 931.8 |
| 20260904190926 | 25 | 184 | 14.5 | 29.0 | 0.00 | 0.00 | 0.00 | 25 | 932.3 |
| 20260904190426 | 25 | 208 | 6.4 | 24.1 | 0.00 | 0.00 | 0.00 | 25 | 932.1 |
| 20260904185923 | 25 | 199 | 24.1 | 32.2 | 0.00 | 0.00 | 0.00 | 24 | 932.0 |
| 20260904185418 | 25 | 201 | 14.5 | 20.9 | 0.00 | 0.00 | 0.00 | 25 | 932.3 |
| 20260904184913 | 24 | 240 | 14.5 | 24.1 | 0.00 | 0.00 | 0.00 | 25 | 932.1 |
| 20260904184408 | 24 | 212 | 20.9 | 37.0 | 0.00 | 0.00 | 0.00 | 25 | 932.1 |
| 20260904183903 | 24 | 207 | 11.3 | 17.7 | 0.00 | 0.00 | 0.00 | 25 | 932.6 |
| 20260904183358 | 24 | 234 | 16.1 | 22.5 | 0.00 | 0.00 | 0.00 | 25 | 932.3 |
| 20260904182854 | 24 | 245 | 3.2 | 14.5 | 0.00 | 0.00 | 0.00 | 26 | 932.4 |
| 20260904182354 | 24 | 228 | 8.0 | 25.7 | 0.00 | 0.00 | 0.00 | 25 | 932.8 |
| 20260904181849 | 24 | 337 | 3.2 | 29.0 | 0.00 | 0.00 | 0.00 | 26 | 932.6 |
| 20260904181343 | 23 | 246 | 9.7 | 17.7 | 0.00 | 0.00 | 0.00 | 26 | 932.5 |
| 20260904180839 | 23 | 239 | 14.5 | 17.7 | 0.00 | 0.00 | 0.00 | 24 | 932.5 |
| 20260904180334 | 23 | 213 | 1.6 | 32.2 | 0.00 | 0.00 | 0.00 | 27 | 932.4 |
| 20260904175833 | 23 | 128 | 8.0 | 24.1 | 0.00 | 0.00 | 0.00 | 26 | 932.5 |
| 20260904175334 | 23 | 178 | 14.5 | 25.7 | 0.00 | 0.00 | 0.00 | 25 | 932.7 |
| 20260904174826 | 23 | 242 | 8.0 | 24.1 | 0.00 | 0.00 | 0.00 | 25 | 932.6 |
| 20260904174322 | 23 | 157 | 14.5 | 24.1 | 0.00 | 0.00 | 0.00 | 25 | 932.5 |
| 20260904173818 | 23 | 227 | 9.7 | 14.5 | 0.00 | 0.00 | 0.00 | 26 | 932.5 |
| 20260904173313 | 23 | 313 | 8.0 | 17.7 | 0.00 | 0.00 | 0.00 | 26 | 932.4 |
| 20260904172809 | 23 | 249 | 14.5 | 32.2 | 0.00 | 0.00 | 0.00 | 25 | 932.5 |
| 20260904172308 | 23 | 192 | 14.5 | 37.0 | 0.00 | 0.00 | 0.00 | 25 | 932.3 |
| 20260904171804 | 23 | 160 | 9.7 | 25.7 | 0.00 | 0.00 | 0.00 | 27 | 932.5 |
| 20260904171259 | 22 | 255 | 3.2 | 22.5 | 0.00 | 0.00 | 0.00 | 26 | 932.3 |
| 20260904170755 | 23 | 193 | 12.9 | 20.9 | 0.00 | 0.00 | 0.00 | 26 | 932.5 |
| 20260904170251 | 22 | 242 | 11.3 | 22.5 | 0.00 | 0.00 | 0.00 | 26 | 932.6 |
| 20260904165750 | 22 | 196 | 3.2 | 17.7 | 0.00 | 0.00 | 0.00 | 26 | 932.3 |
| 20260904165244 | 22 | 228 | 17.7 | 20.9 | 0.00 | 0.00 | 0.00 | 26 | 932.4 |
| 20260904164738 | 22 | 29 | 0.0 | 25.7 | 0.00 | 0.00 | 0.00 | 27 | 932.5 |
| 20260904164234 | 22 | 191 | 11.3 | 20.9 | 0.00 | 0.00 | 0.00 | 27 | 932.6 |
| 20260904163730 | 22 | 234 | 12.9 | 20.9 | 0.00 | 0.00 | 0.00 | 26 | 932.6 |
| 20260904163225 | 22 | 253 | 9.7 | 29.0 | 0.00 | 0.00 | 0.00 | 27 | 932.6 |
| 20260904162724 | 22 | 213 | 14.5 | 22.5 | 0.00 | 0.00 | 0.00 | 26 | 932.4 |
| 20260904162219 | 21 | 177 | 17.7 | 24.1 | 0.00 | 0.00 | 0.00 | 27 | 932.4 |
| 20260904161714 | 21 | 243 | 12.9 | 32.2 | 0.00 | 0.00 | 0.00 | 27 | 932.5 |
| 20260904161210 | 21 | 250 | 16.1 | 32.2 | 0.00 | 0.00 | 0.00 | 26 | 932.7 |
| 20260904160705 | 21 | 235 | 0.0 | 22.5 | 0.00 | 0.00 | 0.00 | 27 | 932.4 |
| 20260904160201 | 21 | 221 | 6.4 | 20.9 | 0.00 | 0.00 | 0.00 | 27 | 932.6 |
| 20260904155701 | 21 | 215 | 8.0 | 24.1 | 0.00 | 0.00 | 0.00 | 27 | 932.4 |
| 20260904155155 | 20 | 193 | 8.0 | 9.7 | 0.00 | 0.00 | 0.00 | 30 | 932.6 |
| 20260904154653 | 20 | 233 | 3.2 | 14.5 | 0.00 | 0.00 | 0.00 | 29 | 932.5 |
| 20260904154153 | 20 | 188 | 11.3 | 12.9 | 0.00 | 0.00 | 0.00 | 28 | 932.5 |
| 20260904153649 | 20 | 187 | 0.0 | 11.3 | 0.00 | 0.00 | 0.00 | 30 | 932.8 |
| 20260904153144 | 20 | 201 | 12.9 | 17.7 | 0.00 | 0.00 | 0.00 | 28 | 932.8 |
| 20260904152641 | 19 | 180 | 4.8 | 17.7 | 0.00 | 0.00 | 0.00 | 30 | 932.7 |
| 20260904152136 | 17 | 13 | 0.0 | 0.0 | 0.00 | 0.00 | 0.00 | 39 | 932.7 |
| 20260904151630 | 17 | 67 | 0.0 | 0.0 | 0.00 | 0.00 | 0.00 | 42 | 932.7 |
| 20260904151129 | 18 | 61 | 0.0 | 0.0 | 0.00 | 0.00 | 0.00 | 41 | 932.8 |